TimeMDT,TemperatureF,Dew PointF,Humidity,Sea Level PressureIn,VisibilityMPH,Wind Direction,Wind SpeedMPH,Gust SpeedMPH,PrecipitationIn,Events,Conditions,WindDirDegrees,DateUTC
12:53 AM,39.0,27.0,62,29.72,10.0,WSW,8.1,-,N/A,,Clear,250,2013-05-27 06:53:00
1:53 AM,39.9,26.1,58,29.72,-9999.0,South,9.2,-,N/A,,Clear,170,2013-05-27 07:53:00
2:53 AM,39.9,28.0,63,29.70,-9999.0,SSE,10.4,-,N/A,,Clear,160,2013-05-27 08:53:00
3:53 AM,43.0,26.1,51,29.71,-9999.0,SSE,10.4,-,N/A,,Clear,150,2013-05-27 09:53:00
4:53 AM,41.0,24.1,51,29.72,-9999.0,South,10.4,-,N/A,,Clear,190,2013-05-27 10:53:00
5:53 AM,41.0,23.0,49,29.73,-9999.0,South,11.5,-,N/A,,Clear,180,2013-05-27 11:53:00
6:53 AM,46.0,27.0,47,29.71,-9999.0,SE,9.2,-,N/A,,Clear,140,2013-05-27 12:53:00
7:53 AM,59.0,21.9,24,29.67,10.0,SW,11.5,-,N/A,,Clear,220,2013-05-27 13:53:00
8:53 AM,64.9,19.0,17,29.67,10.0,WSW,17.3,-,N/A,,Clear,250,2013-05-27 14:53:00
9:53 AM,64.0,21.0,19,29.68,10.0,WSW,12.7,-,N/A,,Clear,240,2013-05-27 15:53:00
10:53 AM,68.0,18.0,15,29.65,10.0,SSW,13.8,-,N/A,,Clear,210,2013-05-27 16:53:00
11:27 AM,68.0,17.6,15,29.95,10.0,WSW,16.1,21.9,N/A,,Clear,240,2013-05-27 17:27:00
11:53 AM,69.1,18.0,14,29.66,10.0,West,21.9,-,N/A,,Partly Cloudy,280,2013-05-27 17:53:00
12:53 PM,69.1,19.9,15,29.68,10.0,West,17.3,24.2,N/A,,Partly Cloudy,260,2013-05-27 18:53:00
1:53 PM,66.9,21.9,18,29.68,10.0,West,16.1,24.2,N/A,,Mostly Cloudy,270,2013-05-27 19:53:00
2:53 PM,63.0,23.0,22,29.70,10.0,SW,24.2,33.4,N/A,Thunderstorm,Thunderstorm,220,2013-05-27 20:53:00
3:02 PM,62.6,26.6,26,29.93,10.0,South,15.0,32.2,N/A,Thunderstorm,Thunderstorm,190,2013-05-27 21:02:00
3:34 PM,66.2,23.0,19,29.92,10.0,WSW,13.8,21.9,N/A,,Partly Cloudy,250,2013-05-27 21:34:00
3:53 PM,64.9,24.1,21,29.68,10.0,West,24.2,34.5,0.00,,Mostly Cloudy,260,2013-05-27 21:53:00
4:53 PM,66.9,23.0,19,29.66,10.0,West,13.8,21.9,N/A,,Clear,280,2013-05-27 22:53:00
5:53 PM,61.0,30.9,32,29.69,10.0,NW,19.6,35.7,N/A,,Mostly Cloudy,320,2013-05-27 23:53:00
6:46 PM,64.4,28.4,26,29.89,10.0,North,-9999.0,-,N/A,,Clear,0,2013-05-28 00:46:00
6:53 PM,64.0,28.0,26,29.63,10.0,North,-9999.0,-,N/A,,Clear,0,2013-05-28 00:53:00
7:53 PM,59.0,30.0,33,29.60,10.0,West,5.8,-,N/A,,Clear,270,2013-05-28 01:53:00
8:53 PM,53.1,25.0,34,29.62,10.0,NW,10.4,-,N/A,,Clear,320,2013-05-28 02:53:00
9:53 PM,50.0,28.0,43,29.65,10.0,NNW,9.2,-,N/A,,Clear,330,2013-05-28 03:53:00
10:53 PM,44.1,28.0,53,29.68,10.0,South,6.9,-,N/A,,Clear,170,2013-05-28 04:53:00
11:53 PM,42.1,27.0,55,29.68,10.0,SW,9.2,-,N/A,,Clear,220,2013-05-28 05:53:00